AF5LA Weather Reports


time (UTC)temp
C
wind
direction
speed
KPH
gust
KPH
rain 1hr
cm
rain 24hr
cm
rain mn
cm
humidity
%
barometer
mb
20260506154529 24 306 0.0 3.2 0.00 0.00 0.00 90 1010.5
20260506153026 24 221 0.0 0.0 0.00 0.00 0.00 91 1010.2
20260506151532 24 221 0.0 0.0 0.00 0.00 0.00 91 1010.0
20260506150025 23 220 0.0 0.0 0.00 0.00 0.00 91 1009.8
20260506144523 23 221 0.0 0.0 0.00 0.00 0.00 90 1009.9
20260506143023 23 221 0.0 0.0 0.00 0.00 0.00 90 1009.8
20260506141548 23 221 0.0 0.0 0.00 0.00 0.00 90 1009.3
20260506140022 23 220 0.0 3.2 0.00 0.00 0.00 90 1009.1
20260506134514 23 246 0.0 0.0 0.00 0.00 0.00 90 1008.7
20260506133022 23 8 0.0 4.8 0.00 0.00 0.00 90 1008.6
20260506131516 23 347 0.0 3.2 0.00 0.00 0.00 90 1008.4
20260506130011 23 219 0.0 4.8 0.00 0.00 0.00 91 1008.4
20260506124508 23 186 0.0 0.0 0.00 0.00 0.00 91 1008.4
20260506123006 23 202 0.0 0.0 0.00 0.00 0.00 91 1008.5
20260506121506 23 219 0.0 0.0 0.00 0.00 0.00 90 1008.5
20260506120006 23 219 0.0 1.6 0.00 0.00 0.00 90 1008.3
20260506114505 23 224 0.0 1.6 0.00 0.00 0.00 90 1008.2
20260506113006 23 224 0.0 1.6 0.00 0.00 0.00 90 1008.2
20260506111503 23 147 0.0 0.0 0.00 0.00 0.00 90 1008.2
20260506110003 23 124 0.0 0.0 0.00 0.00 0.00 90 1008.3
20260506104505 23 118 0.0 0.0 0.00 0.00 0.00 90 1008.1
20260506103002 23 98 0.0 1.6 0.00 0.00 0.00 90 1008.1
20260506101501 23 110 0.0 6.4 0.00 0.00 0.00 90 1008.1
20260506094600 23 68 0.0 1.6 0.00 0.00 0.00 90 1007.9
20260506093102 23 41 0.0 4.8 0.00 0.00 0.00 89 1007.8
20260506091601 23 162 0.0 6.4 0.00 0.00 0.00 89 1007.7
20260506090056 23 111 0.0 4.8 0.00 0.00 0.00 89 1007.9
20260506084556 23 158 0.0 6.4 0.00 0.00 0.00 89 1007.9
20260506083058 23 94 0.0 3.2 0.00 0.00 0.00 89 1007.9
20260506081558 23 134 0.0 1.6 0.00 0.00 0.00 89 1007.8
20260506073048 23 177 0.0 3.2 0.00 0.00 0.00 89 1008.2
20260506071545 23 216 0.0 8.0 0.00 0.00 0.00 89 1008.3
20260506061541 23 173 0.0 6.4 0.00 0.00 0.00 89 1008.6
20260506044530 24 218 0.0 9.7 0.00 0.00 0.00 88 1008.5
20260506043035 24 206 0.0 6.4 0.00 0.00 0.00 88 1008.5
20260506041529 24 185 0.0 0.0 0.00 0.00 0.00 88 1008.5
20260506040036 25 218 0.0 6.4 0.00 0.00 0.00 88 1008.2
20260506034530 25 225 0.0 8.0 0.00 0.00 0.00 88 1008.1
20260506033033 25 229 0.0 4.8 0.00 0.00 0.00 87 1007.8
20260506031528 25 176 0.0 4.8 0.00 0.00 0.00 87 1007.7
20260506030028 25 154 0.0 0.0 0.00 0.00 0.00 85 1007.4
20260506024529 25 154 0.0 8.0 0.00 0.00 0.00 84 1007.1
20260506023029 26 164 1.6 9.7 0.00 0.00 0.00 83 1006.8
20260506021532 26 153 0.0 9.7 0.00 0.00 0.00 81 1006.6
20260506020026 27 340 0.0 8.0 0.00 0.00 0.00 80 1006.7
20260506014524 27 314 0.0 4.8 0.00 0.00 0.00 78 1006.4
20260506013025 27 297 0.0 0.0 0.00 0.00 0.00 77 1006.2
20260506011522 27 295 0.0 0.0 0.00 0.00 0.00 76 1006.0
20260506010041 27 83 0.0 4.8 0.00 0.00 0.00 75 1005.9
20260506004525 28 232 0.0 0.0 0.00 0.00 0.00 75 1005.8
20260506003022 28 232 0.0 3.2 0.00 0.00 0.00 74 1005.7
20260506001521 28 248 0.0 1.6 0.00 0.00 0.00 73 1005.8
20260506000021 28 203 0.0 1.6 0.00 0.00 0.00 71 1005.6
20260505234533 29 166 0.0 3.2 0.00 0.00 0.00 71 1005.4
20260505233025 29 280 0.0 1.6 0.00 0.00 0.00 70 1005.4
20260505231519 30 219 0.0 1.6 0.00 0.00 0.00 68 1005.4
20260505230018 30 161 0.0 9.7 0.00 0.00 0.00 66 1005.2
20260505224515 30 174 0.0 4.8 0.00 0.00 0.00 67 1005.5
20260505223014 30 224 0.0 6.4 0.00 0.00 0.00 66 1005.5
20260505221512 30 96 0.0 8.0 0.00 0.00 0.00 64 1005.5
20260505220010 30 150 0.0 8.0 0.00 0.00 0.00 63 1005.7
20260505214509 30 143 0.0 6.4 0.00 0.00 0.00 65 1005.9
20260505213008 30 145 0.0 11.3 0.00 0.00 0.00 64 1006.0
20260505211503 30 37 0.0 1.6 0.00 0.00 0.00 66 1006.3
20260505210001 30 117 0.0 6.4 0.00 0.00 0.00 66 1006.6
20260505204605 30 158 0.0 8.0 0.00 0.00 0.00 66 1006.7
20260505203058 30 131 0.0 6.4 0.00 0.00 0.00 66 1007.1
20260505201556 30 136 0.0 9.7 0.00 0.00 0.00 66 1007.2
20260505200103 30 122 0.0 3.2 0.00 0.00 0.00 69 1007.3
20260505194554 29 79 0.0 6.4 0.00 0.00 0.00 69 1007.5
20260505193050 30 163 0.0 3.2 0.00 0.00 0.00 68 1007.7
20260505191543 28 146 0.0 11.3 0.00 0.00 0.00 72 1007.8
20260505190040 27 138 0.0 8.0 0.00 0.00 0.00 73 1008.2
20260505184537 27 116 0.0 4.8 0.00 0.00 0.00 74 1008.3
20260505183037 27 111 0.0 9.7 0.00 0.00 0.00 75 1008.6
20260505181534 26 41 0.0 6.4 0.00 0.00 0.00 77 1008.7
20260505180055 26 122 0.0 4.8 0.00 0.00 0.00 78 1008.6
20260505174548 26 47 0.0 4.8 0.00 0.00 0.00 77 1008.8
20260505173033 25 217 0.0 6.4 0.00 0.00 0.00 79 1008.9
20260505171525 25 89 0.0 8.0 0.00 0.00 0.00 82 1009.0
20260505170022 25 126 1.6 9.7 0.00 0.00 0.00 83 1008.9
20260505164518 24 1 0.0 12.9 0.00 0.00 0.00 84 1008.9
20260505163019 23 54 0.0 6.4 0.00 0.00 0.00 86 1009.0
20260505161511 23 104 0.0 6.4 0.00 0.00 0.00 87 1009.1